Location: Newark
(28.1667°N, 17.3333°W)
Time: 02:16:50
(UTC+00:00)

Tiangong 2 - Pass Details

Date: 21 May 2019
Orbit: 378 x 386 km, 42.8° (Epoch: 16 July)

Event Time Altitude Azimuth Distance (km) Brightness Sun altitude
Rises 21:27:36 0° 280° (W) 2,233 6.1 -18.4°
Reaches altitude 10° 21:30:36 10° 312° (NW) 1,382 5.1 -18.9°
Maximum altitude 21:32:02 13° 339° (NNW) 1,244 4.4 -19.2°
Drops below altitude 10° 21:33:28 10° 7° (N) 1,383 4.2 -19.4°
Enters shadow 21:36:24 - 38° (NE) 2,216 4.9 -19.9°
